Flag for Ukraine Weather past 2 weeks in L'viv, Ukraine

32 °F

Light rain. Low clouds.

Feels Like: 24 °F
Forecast: 27 / 34 °F
Wind: 10 mph from East

Location: L'Viv Airport

Current Time: Nov 26, 2015 at 5:12:58 PM

Latest Report: Nov 26, 2015 at 4:30 PM

Visibility: 4 mi

Pressure: 29.89 "Hg

Humidity: 93%

Dew point: 30 °F

Location of L'vivLocation

Historic Weather in L'viv — Graph


L'viv temperature yesterday

Maximum temperature yesterday: 34 °F (at 2:30 PM)
Minimum temperature yesterday: 23 °F (at 2:00 AM)
Average temperature yesterday: 28 °F

Past Weeks' High & Low Weather Summary

High59 °F (Nov 12, 12:00 PM)100% (Nov 13, 6:00 AM)30.36 "Hg (Nov 13, 6:00 AM)
Low23 °F (Nov 24, 10:00 PM)57% (Nov 14, 2:30 PM)29.30 "Hg (Nov 21, 5:00 AM)
Average41 °F88%29.90 "Hg
* Reported Nov 11 4:00 PM — Nov 26 4:00 PM, L'viv, Weather by CustomWeather, © 2015

Note: Actual official high and low records may vary slightly from our data, if they occured in-between our weather recording intervals... More about our weather records


L'viv weather history for previous 24 hours

Time TempWeatherWind HumidityBarometerVisibility
4:00 PM
Thu, Nov 26
34 °FLight rain. Low clouds.10 mph87%29.89 "Hg4 mi
3:30 PM34 °FLow clouds.10 mph87%29.89 "Hg5 mi
3:00 PM34 °FLow clouds.10 mph87%29.86 "Hg5 mi
2:30 PM34 °FLow clouds.10 mph87%29.86 "Hg5 mi
2:00 PM34 °FLight rain. Low clouds.10 mph87%29.86 "Hg4 mi
1:30 PM34 °FLight rain. Low clouds.10 mph87%29.83 "Hg4 mi
1:00 PM34 °FLow clouds.10 mph87%29.83 "Hg4 mi
12:30 PM34 °FLow clouds.10 mph87%29.83 "HgN/A
12:00 PM34 °FOvercast.10 mph87%29.83 "HgN/A
11:30 AM34 °FOvercast.10 mph87%29.83 "HgN/A
11:00 AM34 °FOvercast.10 mph87%29.83 "HgN/A
10:30 AM34 °FOvercast.10 mph87%29.83 "HgN/A
10:00 AM34 °FOvercast.10 mph81%29.83 "HgN/A
9:30 AM34 °FOvercast.10 mph81%29.80 "HgN/A
9:00 AM34 °FOvercast.10 mph87%29.80 "HgN/A
8:30 AM34 °FOvercast.10 mph87%29.80 "HgN/A
8:00 AM34 °FOvercast.13 mph81%29.80 "HgN/A
7:30 AM32 °FOvercast.10 mph93%29.80 "HgN/A
7:00 AM32 °FOvercast.10 mph93%29.77 "HgN/A
6:30 AM32 °FOvercast.8 mph87%29.77 "HgN/A
6:00 AM32 °FOvercast.8 mph93%29.77 "HgN/A
5:00 AM32 °FOvercast.8 mph87%29.80 "HgN/A
4:30 AM32 °FLow clouds.13 mph93%29.80 "HgN/A
4:00 AM32 °FLow clouds.10 mph87%29.80 "HgN/A
3:30 AM32 °FLow clouds.8 mph87%29.80 "HgN/A
3:00 AM30 °FLow clouds.6 mph93%29.80 "HgN/A
2:30 AM30 °FOvercast.10 mph93%29.80 "HgN/A
2:00 AM30 °FOvercast.8 mph86%29.83 "HgN/A
1:30 AM30 °FOvercast.8 mph86%29.83 "HgN/A
1:00 AM30 °FOvercast.8 mph86%29.83 "HgN/A
12:30 AM30 °FPassing clouds.10 mph86%29.83 "HgN/A
12:00 AM28 °FPassing clouds.6 mph93%29.83 "HgN/A
11:30 PM
Wed, Nov 25
28 °FClear.8 mph86%29.83 "Hg10 mi
11:00 PM28 °FClear.8 mph93%29.83 "Hg10 mi
10:30 PM28 °FClear.8 mph93%29.83 "Hg10 mi
10:00 PM28 °FPassing clouds.6 mph86%29.86 "HgN/A
9:30 PM28 °FPassing clouds.6 mph93%29.86 "HgN/A
9:00 PM27 °FPassing clouds.3 mph93%29.89 "Hg5 mi
8:30 PM27 °FPassing clouds.3 mph93%29.89 "Hg6 mi
8:00 PM27 °FPassing clouds.6 mph93%29.89 "Hg4 mi
7:30 PM27 °FPassing clouds.3 mph93%29.89 "Hg4 mi
7:00 PM28 °FPassing clouds.3 mph93%29.86 "Hg4 mi
6:30 PM27 °FPassing clouds.6 mph93%29.89 "Hg4 mi
6:00 PM30 °FPassing clouds.8 mph86%29.89 "HgN/A
5:30 PM30 °FPassing clouds.6 mph93%29.89 "HgN/A
5:00 PM30 °FPassing clouds.8 mph93%29.89 "HgN/A
Weather by CustomWeather, © 2015

See weather overviewHow to use our weather pages